Time,TemperatureF,DewpointF,PressureIn,WindDirection,WindDirectionDegrees,WindSpeedMPH,WindSpeedGustMPH,Humidity,HourlyPrecipIn,Conditions,Clouds,dailyrainin,SoftwareType,DateUTC
2013-03-20 00:03:00,28.0,25.0,29.67,ESE,112,0.0,0.0,87,0.00,,,0.00,,2013-03-20 04:03:00,
2013-03-20 00:12:00,28.0,25.0,29.67,ESE,112,0.0,0.0,87,0.00,,,0.00,,2013-03-20 04:12:00,
2013-03-20 00:23:00,28.0,25.0,29.67,ESE,112,0.0,0.0,87,0.00,,,0.00,,2013-03-20 04:23:00,
2013-03-20 00:32:00,28.0,25.0,29.68,ESE,112,0.0,1.0,87,0.00,,,0.00,,2013-03-20 04:32:00,
2013-03-20 00:43:00,28.0,25.0,29.68,ESE,112,0.0,1.0,87,0.00,,,0.00,,2013-03-20 04:43:00,
2013-03-20 00:53:00,28.0,25.0,29.68,ESE,112,0.0,2.0,87,0.00,,,0.00,,2013-03-20 04:53:00,
2013-03-20 01:03:00,28.0,25.0,29.67,ESE,112,0.0,0.0,87,0.00,,,0.00,,2013-03-20 05:03:00,
2013-03-20 01:13:00,28.0,25.0,29.67,ESE,112,0.0,0.0,87,0.00,,,0.00,,2013-03-20 05:13:00,
2013-03-20 01:23:00,28.0,25.0,29.67,ESE,112,0.0,0.0,87,0.00,,,0.00,,2013-03-20 05:23:00,
2013-03-20 01:32:00,28.0,25.0,29.68,ESE,112,0.0,1.0,87,0.00,,,0.00,,2013-03-20 05:32:00,
2013-03-20 01:42:00,28.0,25.0,29.68,ESE,112,0.0,1.0,87,0.00,,,0.00,,2013-03-20 05:42:00,
2013-03-20 01:53:00,28.0,25.0,29.68,ESE,112,0.0,1.0,87,0.00,,,0.00,,2013-03-20 05:53:00,
2013-03-20 02:03:00,27.0,23.0,29.67,ESE,112,0.0,1.0,86,0.00,,,0.00,,2013-03-20 06:03:00,
2013-03-20 02:13:00,27.0,23.0,29.67,ESE,112,0.0,1.0,86,0.00,,,0.00,,2013-03-20 06:13:00,
2013-03-20 02:22:00,27.0,23.0,29.67,ESE,112,0.0,1.0,86,0.00,,,0.00,,2013-03-20 06:22:00,
2013-03-20 02:32:00,26.0,22.0,29.68,ESE,112,0.0,2.0,86,0.00,,,0.00,,2013-03-20 06:32:00,
2013-03-20 02:43:00,26.0,22.0,29.68,ESE,112,0.0,2.0,86,0.00,,,0.00,,2013-03-20 06:43:00,
2013-03-20 02:53:00,26.0,22.0,29.68,ESE,112,0.0,2.0,86,0.00,,,0.00,,2013-03-20 06:53:00,
2013-03-20 03:02:00,24.0,20.0,29.68,ESE,112,0.0,0.0,85,0.00,,,0.00,,2013-03-20 07:02:00,
2013-03-20 03:12:00,24.0,20.0,29.68,ESE,112,0.0,0.0,85,0.00,,,0.00,,2013-03-20 07:12:00,
2013-03-20 03:22:00,24.0,20.0,29.68,ESE,112,0.0,0.0,85,0.00,,,0.00,,2013-03-20 07:22:00,
2013-03-20 03:32:00,24.0,20.0,29.68,ESE,112,0.0,2.0,85,0.00,,,0.00,,2013-03-20 07:32:00,
2013-03-20 03:42:00,24.0,20.0,29.68,ESE,112,0.0,2.0,85,0.00,,,0.00,,2013-03-20 07:42:00,
2013-03-20 03:52:00,24.0,20.0,29.68,ESE,112,0.0,2.0,85,0.00,,,0.00,,2013-03-20 07:52:00,
2013-03-20 04:02:00,23.0,19.0,29.67,ESE,112,1.0,5.0,85,0.00,,,0.00,,2013-03-20 08:02:00,
2013-03-20 04:13:00,23.0,19.0,29.67,ESE,112,1.0,5.0,85,0.00,,,0.00,,2013-03-20 08:13:00,
2013-03-20 04:22:00,23.0,19.0,29.67,ESE,112,1.0,5.0,85,0.00,,,0.00,,2013-03-20 08:22:00,
2013-03-20 04:32:00,24.0,20.0,29.67,ESE,112,1.0,5.0,85,0.00,,,0.00,,2013-03-20 08:32:00,
2013-03-20 04:42:00,24.0,20.0,29.67,ESE,112,1.0,5.0,85,0.00,,,0.00,,2013-03-20 08:42:00,
2013-03-20 04:52:00,24.0,20.0,29.67,ESE,112,1.0,5.0,85,0.00,,,0.00,,2013-03-20 08:52:00,
2013-03-20 05:02:00,23.0,19.0,29.69,ESE,112,1.0,3.0,85,0.00,,,0.00,,2013-03-20 09:02:00,
2013-03-20 05:12:00,23.0,19.0,29.69,ESE,112,1.0,3.0,85,0.00,,,0.00,,2013-03-20 09:12:00,
2013-03-20 05:22:00,23.0,19.0,29.69,ESE,112,1.0,3.0,85,0.00,,,0.00,,2013-03-20 09:22:00,
2013-03-20 05:33:00,22.0,18.0,29.70,ESE,112,1.0,2.0,85,0.00,,,0.00,,2013-03-20 09:33:00,
2013-03-20 05:43:00,22.0,18.0,29.70,ESE,112,1.0,2.0,85,0.00,,,0.00,,2013-03-20 09:43:00,
2013-03-20 05:53:00,22.0,18.0,29.70,ESE,112,1.0,2.0,85,0.00,,,0.00,,2013-03-20 09:53:00,
2013-03-20 06:03:00,22.0,18.0,29.69,ESE,112,1.0,5.0,85,0.00,,,0.00,,2013-03-20 10:03:00,
2013-03-20 06:13:00,22.0,18.0,29.69,ESE,112,1.0,5.0,85,0.00,,,0.00,,2013-03-20 10:13:00,
2013-03-20 06:23:00,22.0,18.0,29.69,ESE,112,1.0,5.0,85,0.00,,,0.00,,2013-03-20 10:23:00,
2013-03-20 06:33:00,22.0,18.0,29.70,ESE,112,0.0,2.0,85,0.00,,,0.00,,2013-03-20 10:33:00,
2013-03-20 06:43:00,22.0,18.0,29.70,ESE,112,0.0,2.0,85,0.00,,,0.00,,2013-03-20 10:43:00,
2013-03-20 06:53:00,22.0,18.0,29.70,ESE,112,0.0,2.0,85,0.00,,,0.00,,2013-03-20 10:53:00,
2013-03-20 07:03:00,22.0,18.0,29.71,ESE,112,1.0,2.0,85,0.00,,,0.00,,2013-03-20 11:03:00,
2013-03-20 07:12:00,22.0,18.0,29.71,ESE,112,1.0,2.0,85,0.00,,,0.00,,2013-03-20 11:12:00,
2013-03-20 07:22:00,22.0,18.0,29.71,ESE,112,1.0,2.0,85,0.00,,,0.00,,2013-03-20 11:22:00,
2013-03-20 07:32:00,22.0,18.0,29.71,ESE,112,1.0,5.0,85,0.00,,,0.00,,2013-03-20 11:32:00,
2013-03-20 07:42:00,22.0,18.0,29.71,ESE,112,1.0,5.0,85,0.00,,,0.00,,2013-03-20 11:42:00,
2013-03-20 07:52:00,22.0,18.0,29.71,ESE,112,1.0,5.0,85,0.00,,,0.00,,2013-03-20 11:52:00,
2013-03-20 08:02:00,22.0,18.0,29.71,ESE,112,1.0,5.0,85,0.00,,,0.00,,2013-03-20 12:02:00,
2013-03-20 08:13:00,22.0,18.0,29.71,ESE,112,1.0,5.0,85,0.00,,,0.00,,2013-03-20 12:13:00,
2013-03-20 08:33:00,24.0,20.0,29.78,ESE,112,1.0,6.0,85,0.00,,,0.00,,2013-03-20 12:33:00,
2013-03-20 08:43:00,24.0,20.0,29.78,ESE,112,1.0,6.0,85,0.00,,,0.00,,2013-03-20 12:43:00,
2013-03-20 08:52:00,24.0,20.0,29.78,ESE,112,1.0,6.0,85,0.00,,,0.00,,2013-03-20 12:52:00,
2013-03-20 09:03:00,25.0,21.0,29.78,ESE,112,1.0,5.0,85,0.00,,,0.00,,2013-03-20 13:03:00,
2013-03-20 09:12:00,25.0,21.0,29.78,ESE,112,1.0,5.0,85,0.00,,,0.00,,2013-03-20 13:12:00,
2013-03-20 09:22:00,25.0,21.0,29.78,ESE,112,1.0,5.0,85,0.00,,,0.00,,2013-03-20 13:22:00,
2013-03-20 09:32:00,27.0,23.0,29.79,SW,225,2.0,5.0,84,0.00,,,0.00,,2013-03-20 13:32:00,
2013-03-20 09:43:00,27.0,23.0,29.79,SW,225,2.0,5.0,84,0.00,,,0.00,,2013-03-20 13:43:00,
2013-03-20 09:53:00,27.0,23.0,29.79,SW,225,2.0,5.0,84,0.00,,,0.00,,2013-03-20 13:53:00,
2013-03-20 10:03:00,28.0,24.0,29.78,NNW,338,1.0,2.0,84,0.00,,,0.00,,2013-03-20 14:03:00,
2013-03-20 10:12:00,28.0,24.0,29.78,NNW,338,1.0,2.0,84,0.00,,,0.00,,2013-03-20 14:12:00,
2013-03-20 10:23:00,28.0,24.0,29.78,NNW,338,1.0,2.0,84,0.00,,,0.00,,2013-03-20 14:23:00,
2013-03-20 10:34:00,29.0,25.0,29.78,WSW,248,2.0,3.0,83,0.00,,,0.00,,2013-03-20 14:34:00,
2013-03-20 10:42:00,29.0,25.0,29.78,WSW,248,2.0,3.0,83,0.00,,,0.00,,2013-03-20 14:42:00,
2013-03-20 10:53:00,29.0,25.0,29.78,WSW,248,2.0,3.0,83,0.00,,,0.00,,2013-03-20 14:53:00,
2013-03-20 11:03:00,29.0,24.0,29.78,SW,225,2.0,3.0,82,0.00,,,0.00,,2013-03-20 15:03:00,
2013-03-20 11:12:00,29.0,24.0,29.78,SW,225,2.0,3.0,82,0.00,,,0.00,,2013-03-20 15:12:00,
2013-03-20 11:22:00,29.0,24.0,29.78,SW,225,2.0,3.0,82,0.00,,,0.00,,2013-03-20 15:22:00,
2013-03-20 11:33:00,30.0,25.0,29.78,SSE,158,1.0,5.0,82,0.00,,,0.00,,2013-03-20 15:33:00,
2013-03-20 11:43:00,30.0,25.0,29.78,SSE,158,1.0,5.0,82,0.00,,,0.00,,2013-03-20 15:43:00,
2013-03-20 11:53:00,30.0,25.0,29.78,SSE,158,1.0,5.0,82,0.00,,,0.00,,2013-03-20 15:53:00,
2013-03-20 12:03:00,29.0,24.0,29.78,West,270,3.0,7.0,80,0.00,,,0.00,,2013-03-20 16:03:00,
2013-03-20 12:13:00,29.0,24.0,29.78,West,270,3.0,7.0,80,0.00,,,0.00,,2013-03-20 16:13:00,
2013-03-20 12:23:00,29.0,24.0,29.78,West,270,3.0,7.0,80,0.00,,,0.00,,2013-03-20 16:23:00,
2013-03-20 12:33:00,31.0,26.0,29.79,South,180,2.0,5.0,81,0.00,,,0.00,,2013-03-20 16:33:00,
2013-03-20 12:43:00,31.0,26.0,29.79,South,180,2.0,5.0,81,0.00,,,0.00,,2013-03-20 16:43:00,
2013-03-20 12:53:00,31.0,26.0,29.79,South,180,2.0,5.0,81,0.00,,,0.00,,2013-03-20 16:53:00,
2013-03-20 13:03:00,30.0,24.0,29.78,SW,225,3.0,6.0,78,0.00,,,0.00,,2013-03-20 17:03:00,
2013-03-20 13:12:00,30.0,24.0,29.78,SW,225,3.0,6.0,78,0.00,,,0.00,,2013-03-20 17:12:00,
2013-03-20 13:22:00,30.0,24.0,29.78,SW,225,3.0,6.0,78,0.00,,,0.00,,2013-03-20 17:22:00,
2013-03-20 13:32:00,32.0,26.0,29.79,WNW,292,3.0,8.0,78,0.00,,,0.00,,2013-03-20 17:32:00,
2013-03-20 13:42:00,32.0,26.0,29.79,WNW,292,3.0,8.0,78,0.00,,,0.00,,2013-03-20 17:42:00,
2013-03-20 13:53:00,32.0,26.0,29.79,WNW,292,3.0,8.0,78,0.00,,,0.00,,2013-03-20 17:53:00,
2013-03-20 14:02:00,33.0,27.0,29.78,WNW,292,3.0,6.0,77,0.00,,,0.00,,2013-03-20 18:02:00,
2013-03-20 14:12:00,33.0,27.0,29.78,WNW,292,3.0,6.0,77,0.00,,,0.00,,2013-03-20 18:12:00,
2013-03-20 14:22:00,33.0,27.0,29.78,WNW,292,3.0,6.0,77,0.00,,,0.00,,2013-03-20 18:22:00,
2013-03-20 14:34:00,42.0,30.0,29.77,SSW,202,5.0,7.0,63,0.00,,,0.00,,2013-03-20 18:34:00,
2013-03-20 14:43:00,42.0,30.0,29.77,SSW,202,5.0,7.0,63,0.00,,,0.00,,2013-03-20 18:43:00,
2013-03-20 14:53:00,42.0,30.0,29.77,SSW,202,5.0,7.0,63,0.00,,,0.00,,2013-03-20 18:53:00,
2013-03-20 15:02:00,35.0,27.0,29.76,SW,225,3.0,6.0,71,0.00,,,0.00,,2013-03-20 19:02:00,
2013-03-20 15:12:00,35.0,27.0,29.76,SW,225,3.0,6.0,71,0.00,,,0.00,,2013-03-20 19:12:00,
2013-03-20 15:23:00,35.0,27.0,29.76,SW,225,3.0,6.0,71,0.00,,,0.00,,2013-03-20 19:23:00,
2013-03-20 15:32:00,35.0,27.0,29.76,North,0,3.0,12.0,72,0.00,,,0.00,,2013-03-20 19:32:00,
2013-03-20 15:42:00,35.0,27.0,29.76,North,0,3.0,12.0,72,0.00,,,0.00,,2013-03-20 19:42:00,
2013-03-20 15:53:00,35.0,27.0,29.76,North,0,3.0,12.0,72,0.00,,,0.00,,2013-03-20 19:53:00,
2013-03-20 16:02:00,35.0,26.0,29.77,North,0,3.0,7.0,70,0.01,,,0.01,,2013-03-20 20:02:00,
2013-03-20 16:13:00,35.0,26.0,29.77,North,0,3.0,7.0,70,0.01,,,0.01,,2013-03-20 20:13:00,
2013-03-20 16:22:00,35.0,26.0,29.77,North,0,3.0,7.0,70,0.01,,,0.01,,2013-03-20 20:22:00,
2013-03-20 16:32:00,34.0,26.0,29.77,NNW,338,3.0,7.0,72,0.01,,,0.01,,2013-03-20 20:32:00,
2013-03-20 16:42:00,34.0,26.0,29.77,NNW,338,3.0,7.0,72,0.01,,,0.01,,2013-03-20 20:42:00,
2013-03-20 16:53:00,34.0,26.0,29.77,NNW,338,3.0,7.0,72,0.01,,,0.01,,2013-03-20 20:53:00,
2013-03-20 17:02:00,34.0,25.0,29.77,SW,225,2.0,7.0,68,0.00,,,0.01,,2013-03-20 21:02:00,
2013-03-20 17:12:00,34.0,25.0,29.77,SW,225,2.0,7.0,68,0.00,,,0.01,,2013-03-20 21:12:00,
2013-03-20 17:23:00,34.0,25.0,29.77,SW,225,2.0,7.0,68,0.00,,,0.01,,2013-03-20 21:23:00,
2013-03-20 17:33:00,34.0,25.0,29.78,East,90,2.0,5.0,68,0.00,,,0.01,,2013-03-20 21:33:00,
2013-03-20 17:42:00,34.0,25.0,29.78,East,90,2.0,5.0,68,0.00,,,0.01,,2013-03-20 21:42:00,
2013-03-20 17:53:00,34.0,25.0,29.78,East,90,2.0,5.0,68,0.00,,,0.01,,2013-03-20 21:53:00,
2013-03-20 18:03:00,34.0,26.0,29.78,NNW,338,2.0,6.0,71,0.00,,,0.01,,2013-03-20 22:03:00,
2013-03-20 18:13:00,34.0,26.0,29.78,NNW,338,2.0,6.0,71,0.00,,,0.01,,2013-03-20 22:13:00,
2013-03-20 18:23:00,34.0,26.0,29.78,NNW,338,2.0,6.0,71,0.00,,,0.01,,2013-03-20 22:23:00,
2013-03-20 18:33:00,33.0,24.0,29.76,SW,225,2.0,6.0,70,0.00,,,0.01,,2013-03-20 22:33:00,
2013-03-20 18:42:00,33.0,24.0,29.76,SW,225,2.0,6.0,70,0.00,,,0.01,,2013-03-20 22:42:00,
2013-03-20 18:53:00,33.0,24.0,29.76,SW,225,2.0,6.0,70,0.00,,,0.01,,2013-03-20 22:53:00,
2013-03-20 19:03:00,31.0,23.0,29.73,WNW,292,1.0,3.0,71,0.00,,,0.01,,2013-03-20 23:03:00,
2013-03-20 19:12:00,31.0,23.0,29.73,WNW,292,1.0,3.0,71,0.00,,,0.01,,2013-03-20 23:12:00,
2013-03-20 19:23:00,31.0,23.0,29.73,WNW,292,1.0,3.0,71,0.00,,,0.01,,2013-03-20 23:23:00,
2013-03-20 19:33:00,30.0,22.0,29.75,NW,315,1.0,1.0,73,0.00,,,0.01,,2013-03-20 23:33:00,
2013-03-20 19:42:00,30.0,22.0,29.75,NW,315,1.0,1.0,73,0.00,,,0.01,,2013-03-20 23:42:00,
2013-03-20 19:53:00,30.0,22.0,29.75,NW,315,1.0,1.0,73,0.00,,,0.01,,2013-03-20 23:53:00,
2013-03-20 20:03:00,29.0,22.0,29.75,SSW,202,1.0,5.0,74,0.00,,,0.01,,2013-03-21 00:03:00,
2013-03-20 20:13:00,29.0,22.0,29.75,SSW,202,1.0,5.0,74,0.00,,,0.01,,2013-03-21 00:13:00,
2013-03-20 20:23:00,29.0,22.0,29.75,SSW,202,1.0,5.0,74,0.00,,,0.01,,2013-03-21 00:23:00,
2013-03-20 20:33:00,28.0,21.0,29.76,SW,225,0.0,0.0,76,0.00,,,0.01,,2013-03-21 00:33:00,
2013-03-20 20:42:00,28.0,21.0,29.76,SW,225,0.0,0.0,76,0.00,,,0.01,,2013-03-21 00:42:00,
2013-03-20 20:53:00,28.0,21.0,29.76,SW,225,0.0,0.0,76,0.00,,,0.01,,2013-03-21 00:53:00,
2013-03-20 21:02:00,27.0,21.0,29.76,SW,225,0.0,0.0,78,0.00,,,0.01,,2013-03-21 01:02:00,
2013-03-20 21:12:00,27.0,21.0,29.76,SW,225,0.0,0.0,78,0.00,,,0.01,,2013-03-21 01:12:00,
2013-03-20 21:22:00,27.0,21.0,29.76,SW,225,0.0,0.0,78,0.00,,,0.01,,2013-03-21 01:22:00,
2013-03-20 21:33:00,26.0,21.0,29.76,SW,225,0.0,0.0,80,0.00,,,0.01,,2013-03-21 01:33:00,
2013-03-20 21:42:00,26.0,21.0,29.76,SW,225,0.0,0.0,80,0.00,,,0.01,,2013-03-21 01:42:00,
2013-03-20 21:53:00,26.0,21.0,29.76,SW,225,0.0,0.0,80,0.00,,,0.01,,2013-03-21 01:53:00,
2013-03-20 22:03:00,25.0,20.0,29.76,SW,225,0.0,0.0,81,0.00,,,0.01,,2013-03-21 02:03:00,
2013-03-20 22:13:00,25.0,20.0,29.76,SW,225,0.0,0.0,81,0.00,,,0.01,,2013-03-21 02:13:00,
2013-03-20 22:23:00,25.0,20.0,29.76,SW,225,0.0,0.0,81,0.00,,,0.01,,2013-03-21 02:23:00,
2013-03-20 22:33:00,24.0,19.0,29.77,SW,225,0.0,0.0,81,0.00,,,0.01,,2013-03-21 02:33:00,
2013-03-20 22:42:00,24.0,19.0,29.77,SW,225,0.0,0.0,81,0.00,,,0.01,,2013-03-21 02:42:00,
2013-03-20 22:52:00,24.0,19.0,29.77,SW,225,0.0,0.0,81,0.00,,,0.01,,2013-03-21 02:52:00,
2013-03-20 23:02:00,23.0,18.0,29.78,SW,225,0.0,0.0,82,0.00,,,0.01,,2013-03-21 03:02:00,
2013-03-20 23:12:00,23.0,18.0,29.78,SW,225,0.0,0.0,82,0.00,,,0.01,,2013-03-21 03:12:00,
2013-03-20 23:22:00,23.0,18.0,29.78,SW,225,0.0,0.0,82,0.00,,,0.01,,2013-03-21 03:22:00,
2013-03-20 23:33:00,23.0,18.0,29.77,SW,225,0.0,0.0,82,0.00,,,0.01,,2013-03-21 03:33:00,
2013-03-20 23:43:00,23.0,18.0,29.77,SW,225,0.0,0.0,82,0.00,,,0.01,,2013-03-21 03:43:00,
2013-03-20 23:53:00,23.0,18.0,29.77,SW,225,0.0,0.0,82,0.00,,,0.01,,2013-03-21 03:53:00,